{"data":{"norad_id":60726,"epoch":"2026-09-21T08:01:38.080992Z","epoch_age_seconds":116336,"freshness":"FRESH","line1":"1 60726U 24152G   26264.33446853  .00000053  00000+0  52919-5 0  9999","line2":"2 60726  53.1599 231.7735 0000865  63.3153 296.7954 15.69708120119690","mean_motion":15.6970812,"eccentricity":8.65e-5,"inclination_deg":53.1599,"raan_deg":231.7735,"arg_perigee_deg":63.3153,"mean_anomaly_deg":296.7954,"bstar":5.2919e-6,"rev_number":11969,"period_min":91.736800087395,"perigee_km":359.14930458576,"apogee_km":360.31495594529,"semimajor_km":6737.8691302655,"source":"CELESTRAK","updated_at":"2026-09-22T09:00:49.278167Z"}}